[[{"header":{"parameterUnit":"m.s-1","parameterCategory":1,"la1":30.2991,"la2":30.254,"lo1":-89.0895,"lo2":-89.0444,"dy":0.0017,"dx":0.0017,"nx":28,"ny":28,"refTime":"2024-06-06T21:00:00:Z","depth":0,"parameterNumber":2,"parameterNumberName":"U-component_of_WINDS"},"data":[0,0,0,0,0,0,0,0,0,0,0,0,0,0,0,0,0,0,0,0,0,0,0,0,0,0,0,0,0,0,0,0,0,0,0,0,0,0,0,0,0,0,0,0,0,0,0,0,0,0,0,0,0,0,0,0,0,0,0.8031,0.8031,0,0.8048,0.8048,0.8048,0.8053,0.8053,0.8053,0.8053,0.807,0.807,0.8071,0,0,0,0,0,0,0,0,0,0,0,0,0,0.8001,0.8001,0.8031,0.8031,0.8031,0.8048,0.8048,0.8048,0.8053,0.8053,0.8053,0.8053,0.807,0.807,0.8071,0,0,0,0,0,0,0,0,0,0,0,0,0,0.8015,0.8001,0.8031,0.8036,0.8036,0.8048,0.8048,0.8048,0.8053,0.8053,0.8053,0.8053,0.8069,0.807,0.8071,0.8078,0,0,0.8073,0.8074,0,0,0,0,0,0,0,0,0.8014,0.8016,0.8035,0.8035,0.8036,0.8048,0.8044,0.8058,0.8053,0.8047,0.8053,0.8053,0.8063,0.8064,0.8068,0.8079,0.808,0.8073,0.8074,0.8074,0.8074,0,0,0,0,0,0,0,0.8013,0.8016,0.8037,0.8035,0.8036,0.8036,0.8038,0.8046,0.8055,0.8047,0.8048,0.805,0.8063,0.8067,0.8068,0.808,0.8073,0.8074,0.8075,0.8075,0.8097,0.8097,0,0,0,0,0,0,0.8012,0.8015,0.8037,0.8038,0.8025,0.8037,0.8039,0.8045,0.8055,0.8057,0.805,0.805,0.8065,0.8067,0.8069,0.8077,0.8074,0.8075,0.8075,0.8097,0.8097,0.8097,0,0,0,0,0,0,0.8011,0.8014,0.8036,0.8026,0.8029,0.8038,0.8044,0.8045,0.8049,0.8057,0.8059,0.8052,0.8065,0.8067,0.8076,0.8078,0.8075,0.8076,0.8097,0.8097,0.8097,0.8094,0,0,0,0,0,0,0.801,0.8013,0.8017,0.8027,0.803,0.8043,0.8044,0.8045,0.805,0.805,0.806,0.8061,0.8065,0.8074,0.8076,0.8079,0.8077,0.8097,0.8097,0.8097,0.8094,0.8094,0.8094,0,0,0,0,0,0.8009,0.8016,0.8017,0.802,0.8034,0.8044,0.8046,0.8051,0.805,0.8053,0.8058,0.8061,0.8077,0.8075,0.8077,0.808,0.8096,0.8097,0.8097,0.8094,0.8094,0.8094,0,0,0,0,0,0,0.8006,0.8017,0.8019,0.8029,0.8035,0.8045,0.8049,0.8051,0.8058,0.8058,0.8063,0.8065,0.8073,0.8077,0.8075,0.8087,0.8087,0.8087,0.8084,0.8084,0.8084,0.8083,0.8077,0,0,0,0,0,0.8007,0.8014,0.8023,0.803,0.8033,0.804,0.8045,0.8048,0.8055,0.8058,0.8064,0.807,0.8076,0.808,0.8087,0.8095,0.8096,0.8097,0.8098,0.8098,0.8098,0.8101,0.8102,0.8098,0.8098,0.8098,0,0,0.8008,0.8014,0.8019,0.803,0.8035,0.8042,0.8043,0.805,0.8054,0.8059,0.8067,0.8071,0.8078,0.8086,0.809,0.809,0.8099,0.8098,0.8098,0.8098,0.8102,0.8102,0.8102,0.8098,0.8098,0.8098,0,0,0.8013,0.8019,0.8026,0.8031,0.8039,0.8043,0.8045,0.8053,0.8056,0.8064,0.8067,0.8073,0.8084,0.8089,0.8092,0.8098,0.8099,0.8099,0.81,0.8103,0.8103,0.8104,0.8105,0.8105,0.81,0.81,0.81,0,0.8013,0.8023,0.8029,0.8035,0.804,0.8043,0.8049,0.8054,0.8064,0.8067,0.8067,0.808,0.8085,0.8093,0.8094,0.8098,0.8099,0.8099,0.8103,0.8103,0.8104,0.8105,0.8105,0.81,0.81,0.81,0.81,0,0.8023,0.803,0.8034,0.8043,0.8048,0.8054,0.8059,0.8064,0.8066,0.807,0.8077,0.8084,0.8091,0.8093,0.8096,0.8101,0.8101,0.8102,0.8102,0.8104,0.8105,0.8106,0.81,0.81,0.81,0.81,0,0,0.8027,0.8038,0.804,0.8043,0.8052,0.8057,0.8063,0.807,0.8073,0.8079,0.8083,0.8092,0.8092,0.8097,0.81,0.8103,0.8105,0.8103,0.8103,0.8103,0.8111,0.811,0.811,0.8106,0.8107,0.8107,0.811,0,0.8033,0.8044,0.8048,0.8057,0.8063,0.8066,0.8071,0.8076,0.808,0.8085,0.8088,0.8094,0.8095,0.8097,0.81,0.8104,0.8107,0.8104,0.811,0.811,0.8108,0.8111,0.811,0.8113,0.811,0.811,0.8111,0,0.8041,0.8047,0.8056,0.8063,0.8066,0.807,0.8076,0.8081,0.8087,0.8089,0.8093,0.8096,0.8101,0.81,0.8107,0.8106,0.8108,0.811,0.8111,0.8111,0.8111,0.8111,0.8114,0.8114,0.8111,0.8111,0.8111,0,0.8043,0.8053,0.806,0.8063,0.8071,0.8073,0.8077,0.8082,0.8086,0.8091,0.8093,0.8099,0.8102,0.8106,0.811,0.8109,0.8116,0.8116,0.8117,0.8117,0.8119,0.8119,0.8122,0.8121,0.8121,0.8121,0.8121,0,0.8049,0.8054,0.806,0.8064,0.807,0.8074,0.8079,0.8083,0.8088,0.8092,0.8095,0.8098,0.8103,0.8107,0.811,0.8115,0.8117,0.8118,0.8119,0.8118,0.8117,0.812,0.8119,0.8121,0.8121,0.8121,0.8121,0,0.8051,0.8056,0.8063,0.807,0.8071,0.8075,0.808,0.8084,0.8087,0.8092,0.8094,0.8099,0.8104,0.8108,0.8115,0.8116,0.8121,0.8122,0.8119,0.812,0.8121,0.812,0.8125,0.8126,0.8125,0.8125,0.8125,0,0.8054,0.8059,0.8065,0.8068,0.8072,0.8077,0.808,0.8084,0.8087,0.8093,0.8096,0.8101,0.8105,0.8113,0.8117,0.8121,0.8122,0.8124,0.8123,0.8122,0.8122,0.8121,0.8121,0.8124,0.8124,0.8124,0.8124,0,0.8059,0.8061,0.8066,0.8071,0.8075,0.808,0.8084,0.8086,0.8091,0.8094,0.8099,0.8103,0.8109,0.8114,0.8118,0.8121,0.8123,0.8124,0.8124,0.8123,0.8121,0.8122,0.8119,0.8124,0.8124,0.8124,0.8124,0.8124,0.8062,0.8065,0.807,0.8075,0.8079,0.8083,0.8086,0.809,0.8094,0.8099,0.8101,0.8106,0.811,0.8117,0.812,0.8123,0.8124,0.8125,0.8125,0.8125,0.8124,0.8121,0.8124,0.8124,0.8124,0.8124,0.8124,0,0.8067,0.807,0.8074,0.808,0.8084,0.8085,0.809,0.8092,0.8097,0.8101,0.8105,0.811,0.8114,0.8118,0.8122,0.8124,0.8125,0.8125,0.8125,0.8126,0.8124,0.8123,0.8124,0.8124,0.8124,0.8124,0.8124,0.8124,0.807,0.8075,0.8077,0.8084,0.8087,0.8092,0.8094,0.8097,0.81,0.8106,0.8109,0.8112,0.8116,0.812,0.8124,0.8125,0.8126,0.8126,0.8127,0.8126,0.8126,0.8126,0.8125,0.8126,0.8126,0.8128,0.8128,0.8128]},{"header":{"parameterUnit":"m.s-1","parameterCategory":1,"la1":30.2991,"la2":30.254,"lo1":-89.0895,"lo2":-89.0444,"dy":0.0017,"dx":0.0017,"nx":28,"ny":28,"refTime":"2024-06-06T21:00:00:Z","depth":0,"parameterNumber":3,"parameterNumberName":"V-component_of_WINDS"},"data":[0,0,0,0,0,0,0,0,0,0,0,0,0,0,0,0,0,0,0,0,0,0,0,0,0,0,0,0,0,0,0,0,0,0,0,0,0,0,0,0,0,0,0,0,0,0,0,0,0,0,0,0,0,0,0,0,0,0,1.2973,1.2973,0,1.2978,1.2978,1.2978,1.2974,1.2974,1.2974,1.2973,1.2978,1.2979,1.2979,0,0,0,0,0,0,0,0,0,0,0,0,0,1.2957,1.2957,1.2973,1.2973,1.2973,1.2978,1.2978,1.2978,1.2974,1.2974,1.2974,1.2973,1.2978,1.2978,1.2979,0,0,0,0,0,0,0,0,0,0,0,0,0,1.2963,1.2958,1.2973,1.2971,1.2971,1.2978,1.2978,1.2978,1.2974,1.2974,1.2973,1.2973,1.2978,1.2978,1.2979,1.2987,0,0,1.298,1.298,0,0,0,0,0,0,0,0,1.2963,1.2964,1.2972,1.2972,1.2971,1.2975,1.2975,1.2981,1.2974,1.2973,1.2973,1.2973,1.2977,1.2978,1.2979,1.2987,1.2988,1.298,1.2981,1.2981,1.2981,0,0,0,0,0,0,0,1.2963,1.2964,1.2975,1.2972,1.2972,1.297,1.2971,1.2976,1.2977,1.2973,1.2973,1.2974,1.2977,1.2979,1.298,1.2988,1.298,1.2981,1.2981,1.2981,1.3001,1.3002,0,0,0,0,0,0,1.2962,1.2963,1.2975,1.2975,1.2967,1.2971,1.2971,1.2974,1.2977,1.2977,1.2974,1.2973,1.2978,1.2979,1.298,1.2989,1.2981,1.2981,1.2981,1.3001,1.3001,1.3002,0,0,0,0,0,0,1.2962,1.2964,1.2975,1.2969,1.297,1.2971,1.2975,1.2974,1.2976,1.2977,1.2977,1.2975,1.2978,1.2979,1.2985,1.2989,1.2981,1.2982,1.3001,1.3001,1.3002,1.3007,0,0,0,0,0,0,1.2962,1.2963,1.2967,1.2969,1.2971,1.298,1.2975,1.2975,1.2977,1.2977,1.2979,1.2979,1.2978,1.2984,1.2986,1.2989,1.2982,1.3,1.3001,1.3001,1.3007,1.3008,1.3009,0,0,0,0,0,1.2961,1.2969,1.2967,1.2969,1.2975,1.2981,1.2981,1.2981,1.2977,1.2981,1.2981,1.2979,1.2988,1.2985,1.2986,1.299,1.3,1.3001,1.3001,1.3006,1.3008,1.3009,0,0,0,0,0,0,1.2967,1.2969,1.2967,1.2976,1.2978,1.298,1.2984,1.2982,1.2985,1.2985,1.2983,1.2984,1.299,1.2991,1.2987,1.2998,1.2994,1.2995,1.2997,1.2998,1.2999,1.2999,1.2983,0,0,0,0,0,1.2969,1.2974,1.2975,1.2982,1.2983,1.2984,1.2986,1.2985,1.2987,1.2988,1.2989,1.2991,1.2994,1.2996,1.2999,1.3007,1.3007,1.301,1.3011,1.3012,1.3013,1.3016,1.3017,1.3004,1.3004,1.3004,0,0,1.2974,1.2975,1.2978,1.2983,1.2985,1.2989,1.2984,1.2989,1.2992,1.2989,1.2994,1.2995,1.2997,1.3003,1.3006,1.3004,1.3016,1.3013,1.3013,1.3014,1.3016,1.3018,1.3019,1.3004,1.3004,1.3004,0,0,1.2984,1.2986,1.2992,1.2994,1.2996,1.2996,1.2997,1.2999,1.2999,1.3005,1.3002,1.3005,1.3011,1.3013,1.3014,1.3024,1.3021,1.3025,1.303,1.3033,1.3034,1.3035,1.3037,1.3038,1.3025,1.3025,1.3025,0,1.299,1.2996,1.2995,1.3,1.3002,1.2999,1.3004,1.3006,1.3009,1.301,1.3008,1.3014,1.3016,1.3022,1.3024,1.3026,1.3027,1.3024,1.3034,1.3035,1.3035,1.3038,1.3039,1.3026,1.3026,1.3026,1.3026,0,1.3002,1.3007,1.3011,1.3014,1.3016,1.3021,1.3021,1.3023,1.3022,1.3021,1.3027,1.3028,1.3031,1.3032,1.3031,1.3038,1.3037,1.3034,1.303,1.3037,1.3039,1.304,1.3026,1.3026,1.3026,1.3026,0,0,1.3017,1.3019,1.302,1.3021,1.3023,1.3026,1.3031,1.3033,1.3035,1.3037,1.304,1.3045,1.3042,1.3044,1.3043,1.3046,1.3052,1.3043,1.3043,1.3044,1.3059,1.306,1.3062,1.3051,1.3051,1.3051,1.3058,0,1.3027,1.3035,1.3034,1.3041,1.3044,1.3041,1.3045,1.3046,1.3046,1.3048,1.3048,1.3051,1.3048,1.3049,1.3051,1.3051,1.3055,1.305,1.3053,1.3053,1.3052,1.3063,1.3065,1.3072,1.3059,1.306,1.306,0,1.304,1.3042,1.305,1.305,1.3051,1.3055,1.3057,1.306,1.3061,1.306,1.3061,1.3059,1.3063,1.3059,1.3063,1.306,1.3061,1.3061,1.3061,1.3061,1.3057,1.3063,1.3074,1.3075,1.3061,1.3061,1.3061,0,1.3049,1.3054,1.3059,1.306,1.306,1.3063,1.3063,1.3064,1.3065,1.3067,1.3068,1.307,1.3071,1.3072,1.307,1.3068,1.3075,1.3071,1.3074,1.3074,1.3075,1.3075,1.3087,1.3077,1.3077,1.3077,1.3077,0,1.306,1.3064,1.3062,1.3065,1.307,1.3069,1.3073,1.3073,1.3074,1.3076,1.3074,1.3076,1.3074,1.3076,1.3074,1.3078,1.3079,1.3078,1.3077,1.3078,1.3078,1.3078,1.3077,1.3077,1.3077,1.3077,1.3077,0,1.307,1.3069,1.3074,1.3075,1.3075,1.3078,1.3078,1.308,1.308,1.3083,1.3084,1.3082,1.3084,1.3083,1.3085,1.3084,1.3089,1.3088,1.3088,1.3088,1.3091,1.309,1.3103,1.3104,1.3094,1.3094,1.3094,0,1.3077,1.3081,1.3081,1.3082,1.3083,1.3085,1.3087,1.3085,1.3086,1.3087,1.3089,1.3091,1.3092,1.3096,1.3095,1.3096,1.3095,1.3099,1.3095,1.3095,1.3094,1.3094,1.3094,1.31,1.31,1.31,1.31,0,1.3089,1.3088,1.309,1.3092,1.3094,1.3095,1.3096,1.3097,1.3095,1.3097,1.3099,1.31,1.3101,1.3103,1.3104,1.3104,1.3101,1.3101,1.3102,1.3102,1.3102,1.3102,1.309,1.3101,1.3101,1.3101,1.3101,1.3101,1.3098,1.31,1.3101,1.3103,1.3103,1.3104,1.3106,1.3105,1.3107,1.3108,1.3107,1.3109,1.3109,1.311,1.311,1.3112,1.311,1.3111,1.3111,1.3111,1.3112,1.3102,1.3112,1.3112,1.3112,1.3112,1.3112,0,1.3109,1.3109,1.3111,1.3112,1.3113,1.3111,1.3112,1.3113,1.3115,1.3115,1.3116,1.3118,1.3119,1.3118,1.3119,1.3121,1.3119,1.3121,1.312,1.312,1.3113,1.3112,1.3122,1.3122,1.3122,1.3122,1.3122,1.3122,1.3115,1.3119,1.3118,1.3121,1.3121,1.3123,1.3124,1.3124,1.3124,1.3126,1.3127,1.3127,1.3126,1.3127,1.3128,1.3127,1.3128,1.3129,1.3128,1.3122,1.3121,1.312,1.3119,1.3129,1.3129,1.3135,1.3135,1.3135]}]]